Content
SEND FEEDBACK

Daily
Averages
Monthly
Summary
Brazil

TERESINA, PIAUI


Home > South America > Brazil > Piaui
Elevation: 328 feet     Latitude: 05 03S     Longitude: 042 48W

WEATHER
 
SELECT A DAY
Number of Records: 161,946;   Date Range: 6/30/96 - 4/19/14
 
SHARE

PRINT THIS DATA

[ ← Previous Day ]
WEATHER ALMANAC - FEBRUARY 3, 2013
[ Next Day → ]
[ °C ]   °F
Weather ElementAverageHighLow
Temperature87.9 °F98.6 °F (4:00 pm)78.8 °F (4:00 am)
Dewpoint74 °F78.8 °F (9:00 am)66.2 °F (12:00 pm)
Humidity64.8 %89 % (4:00 am)37 % (3:00 pm)
Barometer29.79 in29.89 in (8:00 am)29.68 in (5:00 pm)
Wind Speed1.4 mph5.8 mph (11:00 pm)
Weather ElementAverage
Visibility7.7 mi
Wind DirectionESE (127.2 °)

Weather ElementTotal
Precipitation---
Cooling Degree Days23.7 (Base 65)
Growing Degree Days38.7 (Base 50)
Averaged from 27 records on February 3, 2013
WEATHER CONDITIONS BREAKOUT
WIND DIRECTION BREAKOUT
WEATHER BY HOUR - FEBRUARY 3, 2013
[ °C ]   °F
Local TimeTemperatureDewpointHumidityBarometerVisibilityWind DirectionWind SpeedGust SpeedPrecipitationEventsConditions
1:00 AM80.6 °F75.2 °F84 %29.80 inNW (310°)2.3 mphClear
2:00 AM80.6 °F75.2 °F84 %29.80 inWNW (300°)1.2 mphClear
3:00 AM81.0 °F75.0 °F76 %29.81 in12.0 miWNW (300°)2.3 mph
3:00 AM80.6 °F75.2 °F84 %29.80 inWNW (300°)2.3 mphClear
4:00 AM78.8 °F75.2 °F89 %29.80 inWNW (300°)2.3 mphClear
5:00 AM78.8 °F75.2 °F89 %29.83 inCalmClear
6:00 AM78.8 °F75.2 °F89 %29.83 inCalmClear
7:00 AM80.6 °F75.2 °F84 %29.86 in6.2 miESE (110°)1.2 mphScattered Clouds
8:00 AM84.2 °F77.0 °F79 %29.89 in6.2 miNNW (330°)1.2 mphScattered Clouds
9:00 AM87.0 °F78.0 °F69 %29.88 in12.0 miCalmScattered Clouds
9:00 AM87.8 °F78.8 °F75 %29.89 in6.2 miCalmPartly Cloudy
10:00 AM86.0 °F77.0 °F74 %29.89 in6.2 miENE (60°)2.3 mphRainLight Rain
11:00 AM91.4 °F77.0 °F63 %29.86 in6.2 miCalmScattered Clouds
12:00 PM91.4 °F66.2 °F43 %29.83 in6.2 miNNE (20°)1.2 mphMostly Cloudy
1:00 PM93.2 °F75.2 °F56 %29.80 in6.2 miSSW (200°)1.2 mphPartly Cloudy
2:00 PM95.0 °F73.4 °F49 %29.77 in6.2 miEast (100°)2.3 mphScattered Clouds
3:00 PM96.0 °F72.0 °F37 %29.73 in12.0 miESE (110°)2.3 mphPartly Cloudy
3:00 PM96.8 °F71.6 °F44 %29.74 in6.2 miESE (110°)2.3 mphScattered Clouds
4:00 PM98.6 °F69.8 °F39 %29.71 in6.2 miENE (60°)2.3 mphPartly Cloudy
5:00 PM98.6 °F68.0 °F37 %29.68 in6.2 miEast (100°)2.3 mphPartly Cloudy
6:00 PM96.8 °F69.8 °F41 %29.68 inSSE (150°)2.3 mphClear
7:00 PM93.2 °F71.6 °F49 %29.71 inCalmClear
8:00 PM89.6 °F73.4 °F59 %29.71 inCalmClear
9:00 PM88.0 °F74.0 °F54 %29.74 in12.0 miCalm
9:00 PM87.8 °F73.4 °F62 %29.74 inCalmClear
10:00 PM86.0 °F75.2 °F70 %29.77 inCalmClear
11:00 PM86.0 °F75.2 °F70 %29.77 inNW (320°)5.8 mphClear
Hourly data recorded from SBTE, located 1.72 miles away from Teresina, Piaui







STORIES FROM OUR PARTNERS